Location: Newark
(7.0858°N, 171.3717°E)
Time: 19:48:19
(UTC+00:00)

Vanguard 2 - Pass Details

Date: 27 November 2020
Orbit: 553 x 2937 km, 32.9° (Epoch: 17 January)

Event Time Altitude Azimuth Distance (km) Brightness Sun altitude
Rises 10:34:00 0° 244° (WSW) 5,369 12.3 -60.3°
Reaches altitude 10° 10:41:03 10° 217° (SW) 4,942 11.9 -61.7°
Maximum altitude 10:46:08 12° 196° (SSW) 5,065 11.8 -62.8°
Drops below altitude 10° 10:51:46 10° 176° (S) 5,536 12.0 -63.9°
Sets 11:01:21 0° 150° (SSE) 6,780 12.4 -65.9°
